Location: La Brionne
(46.1728°N, 1.7849°E)
Time: 20:07:15
(UTC+00:00)

USA 267 - Pass Details

Date: 27 October 2021
Orbit: 1101 x 1107 km, 123.0° (Epoch: 27 November)

Event Time Altitude Azimuth Distance (km) Brightness Sun altitude
Exits shadow 17:29:47 - 117° (ESE) 3,809 5.6 -8.2°
Reaches altitude 10° 17:31:59 10° 116° (ESE) 2,954 5.0 -8.6°
Maximum altitude 17:38:30 75° 32° (NNE) 1,142 3.3 -9.7°
Drops below altitude 10° 17:45:01 10° 309° (NW) 2,964 6.2 -10.8°
Sets 17:47:30 0° 308° (NW) 3,924 6.9 -11.2°
